Dewpoint
49 50 51 48 47 50 51 51 51 51 52 53 53 54 55 56 59 59 59 58 58 57 58 58 59 59 50 43 41 51 61 58 49 45 37 33 28 27 24 25 28 22 21 26 27 26 24
49 49 50 51 48 47 50 51 50 51 51 51 53 55 55 56 58 59 59 58 58 57 58 58 59 58 43 39 43 52 46 44 43 40 36 32 29 30 27 26 25 26 25 25 27 26 25
48 49 49 50 50 47 49 50 50 50 50 51 51 52 55 56 57 59 59 58 57 57 57 57 58 53 43 38 40 42 42 40 42 39 37 36 33 29 27 26 28 27 24 24 25 26 25
48 48 49 49 50 49 48 50 50 51 50 50 52 53 52 53 55 58 59 59 58 57 56 57 58 48 38 41 40 37 37 37 39 38 38 38 35 32 29 30 30 25 25 23 26 27 27
49 49 48 49 49 48 47 48 49 50 50 50 50 51 52 52 54 57 58 58 58 56 56 57 49 42 36 45 36 36 37 36 37 38 37 36 34 30 30 28 25 26 20 24 25 27 27
49 50 48 48 49 49 48 47 49 49 50 50 49 50 52 53 52 54 58 57 55 55 52 52 46 42 38 34 38 37 38 38 35 36 35 34 33 28 28 25 23 21 24 24 26 27 26
49 48 48 47 48 49 48 47 48 48 49 50 50 50 51 52 52 53 55 50 45 43 47 41 41 39 37 38 38 37 39 39 36 27 25 33 26 25 24 25 23 25 23 24 25 28 25
48 48 47 47 48 48 48 47 48 48 48 49 49 50 51 50 52 52 52 45 42 37 38 45 45 43 38 38 34 35 39 31 29 23 31 28 23 24 27 27 27 25 23 26 24 28 28
48 48 47 47 47 48 48 47 47 47 47 48 49 50 50 51 51 48 50 46 48 46 37 35 40 42 37 36 33 33 36 33 26 29 28 24 22 26 27 26 24 27 22 24 22 27 26
47 46 47 47 48 48 46 48 46 47 47 48 49 49 50 50 45 44 49 49 49 39 29 28 39 40 37 36 32 38 37 32 29 25 28 25 28 27 27 26 24 21 25 24 26 24 21
47 47 46 47 47 48 48 47 47 47 47 49 48 49 49 49 44 41 45 51 48 36 20 25 38 41 38 33 34 36 37 35 28 29 28 25 30 27 24 24 27 26 28 27 26 26 23
47 47 47 47 47 47 47 47 47 47 47 48 48 48 48 48 47 45 48 49 44 31 21 22 37 38 33 33 35 36 34 35 33 31 28 27 32 29 28 30 28 32 27 27 27 24 20
46 46 47 46 46 47 45 46 46 46 46 47 47 47 46 46 41 48 48 46 32 26 24 27 31 36 31 33 34 33 32 31 28 26 25 29 29 30 30 30 31 27 22 19 15 15 14
46 47 47 47 45 46 47 46 46 46 47 47 46 46 45 44 49 48 43 35 25 29 20 31 33 36 30 31 33 33 29 28 30 27 27 26 22 29 30 29 29 25 19 19 3 10 12
45 46 47 47 47 46 45 45 46 46 46 46 46 42 43 44 48 46 34 27 29 28 25 32 35 33 30 31 32 32 29 25 28 28 22 23 19 30 30 30 29 27 21 18 19 20 18
45 44 45 46 46 47 47 46 46 46 46 47 44 41 39 41 48 41 31 27 32 29 30 32 29 32 28 29 30 30 30 29 28 29 25 24 19 29 29 29 29 28 27 21 22 15 15
45 44 43 45 46 46 46 46 46 46 46 46 41 37 40 44 45 37 27 30 34 29 30 27 27 29 28 29 29 28 29 28 29 29 27 24 25 27 28 27 26 27 26 26 24 22 14
44 44 45 43 44 46 46 46 46 46 46 43 40 32 42 47 35 34 30 33 34 30 31 28 26 26 28 29 29 28 25 25 31 29 25 26 26 26 26 28 29 29 26 24 19 18 21
42 44 45 44 42 44 46 46 46 46 46 43 34 35 40 41 27 31 35 32 32 29 29 31 25 26 28 28 27 27 28 35 36 29 26 28 24 23 25 26 27 27 27 26 25 26 21
39 42 43 43 43 42 42 43 45 46 45 45 34 27 34 37 36 33 34 34 32 31 30 32 31 30 27 27 30 28 32 36 37 33 39 32 27 19 12 16 27 26 27 27 23 22 19
40 41 41 43 43 43 44 42 42 43 45 43 32 29 32 26 30 32 33 34 32 30 33 34 31 30 29 27 32 32 34 35 36 38 35 30 27 26 27 26 27 27 27 27 25 22 20
39 40 40 41 41 41 43 43 43 42 44 42 32 31 34 30 32 31 31 33 30 30 30 28 26 33 30 28 30 31 33 34 33 35 34 33 30 29 28 28 28 25 27 27 26 26 24
40 40 40 40 39 40 42 43 43 42 45 40 39 37 33 29 32 31 32 33 33 31 33 33 31 31 30 32 35 35 35 35 35 34 33 31 29 26 24 27 25 24 25 27 27 27 27
40 42 42 40 39 39 40 42 42 43 44 42 41 38 31 27 32 31 32 35 34 32 30 35 34 32 35 37 35 34 33 34 34 34 34 30 28 26 20 23 16 23 25 28 27 26 26
39 41 42 41 41 40 42 43 42 41 43 41 42 38 33 27 32 31 31 33 36 35 34 36 36 37 37 34 31 29 29 30 31 33 33 33 29 24 23 21 23 23 25 27 28 27 24
38 40 42 43 43 43 43 42 42 42 43 42 40 42 37 30 30 32 32 32 33 32 32 34 38 37 37 34 30 25 24 25 25 28 31 32 32 30 26 24 20 22 26 28 26 21 21
36 38 40 41 45 43 43 43 43 44 44 41 39 42 38 31 34 32 32 31 33 34 31 33 34 35 37 33 29 28 25 28 23 23 25 28 28 27 29 26 23 24 26 27 21 18 23
36 36 37 38 40 42 42 42 42 43 44 42 40 41 38 33 34 33 34 31 33 33 31 32 33 32 31 29 28 26 25 26 23 24 27 25 25 26 27 25 23 26 25 24 25 26 25
35 35 35 36 37 38 40 41 41 42 42 41 36 40 41 35 33 37 37 37 36 35 34 34 32 33 34 28 28 27 22 22 21 22 27 24 28 26 27 25 24 20 25 25 23 26 25
Lifted_Index
16 15 14 13 12 11 10 10 9 9 9 9 9 9 8 8 6 6 6 7 7 8 8 8 8 8 9 9 9 8 8 8 10 9 9 9 9 8 7 7 6 6 6 6 6 7 6
13 12 9 7 7 6 5 5 6 7 8 9 9 9 8 8 6 6 6 6 7 7 8 8 8 9 9 9 9 9 9 9 10 9 9 9 9 8 7 7 6 6 6 6 6 6 6
8 6 3 1 1 0 0 1 2 4 6 7 8 9 9 8 7 6 5 6 7 7 8 8 8 9 9 10 10 9 9 9 10 9 9 9 9 8 7 7 6 6 5 5 5 5 5
2 1 -0 -1 -1 -1 -1 -1 -0 1 2 4 6 8 9 9 7 5 5 5 6 7 8 8 8 9 10 10 10 10 9 9 10 10 10 10 9 8 7 7 6 6 5 4 4 4 4
0 -0 -1 -1 -1 -1 -1 -1 -1 -1 -0 2 5 7 8 9 7 5 4 4 6 7 8 8 8 9 10 10 10 10 10 9 10 10 10 9 9 8 7 6 6 5 5 4 4 4 4
-0 -0 -1 -1 -1 -1 -1 -1 -1 -2 -1 1 4 5 7 8 7 5 4 4 6 7 8 8 9 9 10 10 10 10 10 10 10 9 9 8 8 7 6 6 5 5 5 4 4 4 4
-1 -1 -1 -1 -1 -1 -1 -1 -1 -2 -1 0 2 4 5 7 7 6 4 5 6 7 7 8 9 9 10 10 10 10 10 10 10 9 8 7 7 6 5 5 5 5 5 4 4 5 4
-1 -1 -1 -1 -1 -1 -1 -1 -1 -2 -1 -1 1 3 4 6 7 6 5 5 6 6 7 8 8 8 9 9 9 9 9 9 9 8 7 7 6 6 6 6 6 5 4 4 4 5 5
-1 -1 -1 -1 -1 -1 -1 -1 -1 -1 -1 -1 -0 2 4 5 6 6 5 5 5 5 6 7 7 7 8 8 9 9 9 9 8 7 7 6 6 6 6 6 6 5 4 4 4 4 4
-1 -1 -1 -1 -1 -1 -1 -1 -1 -1 -1 -1 -0 1 3 4 6 6 4 4 4 4 4 6 7 7 7 8 8 8 8 8 8 7 6 6 6 6 6 6 6 5 5 5 4 4 4
-1 -1 -1 -1 -1 -1 -1 -1 -1 -1 -1 -1 -1 0 2 4 5 5 4 4 3 3 3 5 6 7 7 7 8 8 8 8 8 7 7 6 6 6 6 6 6 6 6 6 5 4 4
-1 -1 -1 -1 -1 -1 -1 -1 -1 -1 -1 -1 -0 1 2 5 6 6 5 4 3 3 3 4 5 6 6 7 7 7 8 8 7 7 6 6 7 7 6 6 6 6 6 5 5 4 3
-1 -1 -1 -1 -1 -1 -1 -1 -1 -1 -1 -1 -0 1 3 5 7 7 6 4 3 3 4 5 5 5 6 6 7 7 7 7 7 6 5 5 6 7 7 6 6 6 5 3 2 2 1
-0 -1 -1 -1 -1 -1 -1 -1 -1 -1 -1 -0 0 2 4 6 6 7 6 4 3 3 5 5 5 5 5 6 6 6 6 6 6 5 4 4 4 6 6 6 5 5 4 2 1 1 1
0 -0 -0 -1 -1 -1 -1 -1 -1 -1 -1 -0 1 2 4 5 6 7 6 4 3 4 5 5 5 4 4 5 5 6 6 6 6 6 4 3 3 5 6 6 6 5 4 3 2 2 1
0 0 -0 -0 -1 -1 -1 -1 -1 -1 -1 -0 1 2 3 4 6 7 6 4 4 5 5 5 4 4 4 4 5 5 5 6 6 6 5 4 4 4 5 6 5 5 4 4 3 2 1
0 0 0 0 -0 -1 -1 -1 -1 -1 -0 0 1 2 2 3 5 5 5 4 4 5 5 5 4 4 4 4 4 4 4 5 6 6 5 5 4 4 4 5 5 5 4 4 3 2 1
1 1 0 0 0 -0 -0 -1 -0 -0 -0 0 1 2 2 3 4 4 4 3 4 4 5 5 4 4 4 3 3 3 3 4 5 5 5 5 4 3 3 4 5 5 4 4 4 3 2
3 1 0 0 0 0 0 -0 -0 -0 -0 0 1 2 2 3 4 4 3 3 3 4 5 5 5 4 3 3 3 3 3 4 4 4 4 4 3 2 3 4 5 4 4 4 4 3 2
4 3 1 1 0 1 1 1 0 0 0 1 1 2 2 3 3 3 3 3 3 4 4 4 4 4 3 3 3 2 3 3 4 4 4 3 3 2 2 3 4 4 4 4 3 3 2
5 4 3 2 1 1 1 1 1 1 1 1 2 2 3 3 3 3 3 3 3 4 4 4 4 4 4 3 3 3 3 3 3 3 3 2 2 2 3 3 4 3 3 3 3 3 3
5 5 4 3 2 1 1 1 1 1 1 2 2 3 3 3 3 3 3 2 3 3 4 3 4 4 4 4 3 3 3 3 3 2 2 2 1 2 2 3 3 3 3 4 4 4 4
5 5 4 4 3 2 2 1 1 1 2 2 3 3 3 3 3 3 3 2 3 3 3 3 3 3 3 3 3 2 2 2 2 2 1 1 1 1 1 2 2 3 3 4 4 4 4
5 5 4 4 4 3 2 1 1 2 2 3 3 4 3 3 4 4 3 3 3 3 3 3 3 2 3 2 2 1 1 1 1 1 1 1 1 1 1 1 2 3 3 3 3 3 3
6 5 4 4 4 3 2 1 2 2 2 3 4 4 4 3 4 4 4 3 3 3 3 3 3 3 2 2 2 1 1 1 1 1 1 1 1 1 1 1 2 3 3 3 3 3 3
8 6 5 4 4 3 2 2 2 2 2 3 4 5 4 4 4 4 4 3 3 3 3 3 3 3 3 2 2 2 2 2 1 1 1 1 1 1 1 1 2 3 3 3 2 2 3
10 8 6 5 4 3 3 2 2 2 2 4 5 5 4 4 4 5 4 4 4 3 3 3 3 3 3 2 2 2 2 2 2 2 2 1 1 1 1 1 2 3 3 3 2 3 3
11 10 8 6 5 5 4 3 3 2 3 4 5 5 5 4 4 5 5 5 5 4 3 3 3 2 2 2 2 2 2 2 2 2 2 2 1 1 1 1 2 4 4 3 3 4 4
12 11 9 7 6 6 5 4 3 3 3 4 5 5 5 4 4 5 6 6 6 5 4 3 2 2 2 2 2 2 2 2 2 2 2 2 1 1 1 2 3 4 4 4 4 4 4